Location: Sankt+Gallen
(47.4262°N, 9.3755°E)
Time: 05:57:55
(UTC+01:00)

ARIANE 6 FM1 Upper Stage - Pass Details

Date: 20 February 2026
Orbit: 523 x 607 km, 62.0° (Epoch: 11 March)

Event Time Altitude Azimuth Distance (km) Brightness Sun altitude
Rises 18:37:39 0° 315° (NW) 2,660 6.7 -8.1°
Reaches altitude 10° 18:39:51 10° 311° (NW) 1,768 5.8 -8.5°
Maximum altitude 18:43:45 60° 232° (SW) 607 3.1 -9.1°
Drops below altitude 10° 18:47:40 10° 152° (SSE) 1,773 5.0 -9.8°
Sets 18:49:53 0° 149° (SSE) 2,668 5.9 -10.2°
